TimeCST,TemperatureF,Dew PointF,Humidity,Sea Level PressureIn,VisibilityMPH,Wind Direction,Wind SpeedMPH,Gust SpeedMPH,PrecipitationIn,Events,Conditions,WindDirDegrees,DateUTC
12:53 AM,36.0,30.9,82,30.23,3.0,Calm,Calm,-,N/A,,Haze,0,2012-11-04 05:53:00
1:53 AM,36.0,30.0,79,30.22,7.0,Calm,Calm,-,N/A,,Clear,0,2012-11-04 06:53:00
1:53 AM,34.0,30.0,85,30.21,6.0,Calm,Calm,-,N/A,,Clear,0,2012-11-04 07:53:00
2:53 AM,30.9,27.0,85,30.21,6.0,Calm,Calm,-,N/A,,Clear,0,2012-11-04 08:53:00
3:53 AM,32.0,28.0,85,30.21,6.0,Calm,Calm,-,N/A,,Partly Cloudy,0,2012-11-04 09:53:00
4:53 AM,32.0,28.0,85,30.22,9.0,Calm,Calm,-,N/A,,Clear,0,2012-11-04 10:53:00
5:53 AM,33.1,28.9,85,30.22,8.0,Calm,Calm,-,N/A,,Clear,0,2012-11-04 11:53:00
6:53 AM,35.1,30.0,82,30.23,9.0,Calm,Calm,-,N/A,,Partly Cloudy,0,2012-11-04 12:53:00
7:53 AM,37.0,33.1,86,30.25,8.0,Calm,Calm,-,N/A,,Partly Cloudy,0,2012-11-04 13:53:00
8:53 AM,43.0,35.1,74,30.24,10.0,Calm,Calm,-,N/A,,Partly Cloudy,0,2012-11-04 14:53:00
9:53 AM,53.1,35.1,50,30.21,10.0,South,5.8,-,N/A,,Partly Cloudy,190,2012-11-04 15:53:00
10:53 AM,57.0,34.0,42,30.19,10.0,South,9.2,-,N/A,,Clear,190,2012-11-04 16:53:00
11:53 AM,60.1,36.0,41,30.16,10.0,South,8.1,-,N/A,,Clear,180,2012-11-04 17:53:00
12:53 PM,61.0,36.0,39,30.11,10.0,SSE,8.1,-,N/A,,Clear,160,2012-11-04 18:53:00
1:53 PM,64.9,36.0,34,30.08,10.0,South,10.4,18.4,N/A,,Clear,190,2012-11-04 19:53:00
2:53 PM,66.9,36.0,32,30.04,10.0,South,10.4,-,N/A,,Clear,180,2012-11-04 20:53:00
3:53 PM,64.9,36.0,34,30.04,10.0,South,10.4,-,N/A,,Clear,170,2012-11-04 21:53:00
4:53 PM,64.0,35.1,34,30.03,10.0,South,9.2,-,N/A,,Clear,170,2012-11-04 22:53:00
5:53 PM,59.0,36.0,42,30.04,10.0,SSE,5.8,-,N/A,,Clear,160,2012-11-04 23:53:00
6:53 PM,60.1,37.0,42,30.04,10.0,South,11.5,-,N/A,,Partly Cloudy,170,2012-11-05 00:53:00
7:53 PM,57.9,37.9,47,30.03,10.0,Calm,Calm,-,N/A,,Mostly Cloudy,0,2012-11-05 01:53:00
8:53 PM,57.9,37.0,46,30.05,10.0,NW,3.5,-,N/A,,Overcast,310,2012-11-05 02:53:00
9:53 PM,55.9,39.9,55,30.05,10.0,North,5.8,-,N/A,,Overcast,10,2012-11-05 03:53:00
10:53 PM,55.0,41.0,59,30.03,10.0,SE,3.5,-,0.00,Rain,Light Rain,130,2012-11-05 04:53:00